TimeEDT,TemperatureF,Dew PointF,Humidity,Sea Level PressureIn,VisibilityMPH,Wind Direction,Wind SpeedMPH,Gust SpeedMPH,PrecipitationIn,Events,Conditions,WindDirDegrees,DateUTC
12:51 AM,68.0,64.0,87,30.02,10.0,Calm,Calm,-,N/A,,Overcast,0,2013-10-13 04:51:00
1:04 AM,68.0,64.4,88,30.02,10.0,Calm,Calm,-,N/A,,Overcast,0,2013-10-13 05:04:00
1:35 AM,68.0,64.4,88,30.02,10.0,Calm,Calm,-,N/A,,Overcast,0,2013-10-13 05:35:00
1:51 AM,69.1,64.9,87,30.02,10.0,Variable,4.6,-,N/A,,Overcast,0,2013-10-13 05:51:00
2:51 AM,69.1,66.0,90,30.01,10.0,Variable,5.8,-,N/A,,Overcast,0,2013-10-13 06:51:00
3:30 AM,69.8,66.2,88,30.01,7.0,Variable,3.5,-,0.00,Rain,Light Rain,0,2013-10-13 07:30:00
3:51 AM,69.1,66.9,93,30.01,9.0,Variable,5.8,-,0.00,,Overcast,0,2013-10-13 07:51:00
4:51 AM,69.1,68.0,96,30.01,9.0,Variable,6.9,-,0.00,Rain,Light Rain,0,2013-10-13 08:51:00
5:51 AM,70.0,68.0,93,30.02,10.0,NNE,8.1,-,0.00,,Overcast,20,2013-10-13 09:51:00
6:51 AM,70.0,69.1,97,30.04,10.0,NNE,6.9,-,N/A,,Overcast,30,2013-10-13 10:51:00
7:51 AM,70.0,68.0,93,30.04,10.0,NNE,8.1,-,N/A,,Overcast,30,2013-10-13 11:51:00
8:51 AM,71.1,69.1,93,30.06,10.0,Variable,6.9,-,N/A,,Overcast,0,2013-10-13 12:51:00
9:51 AM,72.0,69.1,91,30.07,10.0,NE,8.1,-,N/A,,Overcast,40,2013-10-13 13:51:00
10:51 AM,75.0,70.0,84,30.08,10.0,NNE,9.2,16.1,N/A,,Mostly Cloudy,30,2013-10-13 14:51:00
11:51 AM,78.1,70.0,76,30.07,10.0,ENE,8.1,16.1,N/A,,Clear,60,2013-10-13 15:51:00
12:51 PM,78.1,69.1,74,30.06,10.0,ENE,13.8,20.7,N/A,,Scattered Clouds,60,2013-10-13 16:51:00
1:51 PM,77.0,69.1,76,30.06,10.0,NE,9.2,18.4,N/A,,Scattered Clouds,50,2013-10-13 17:51:00
2:51 PM,78.1,69.1,74,30.05,10.0,ENE,6.9,20.7,N/A,,Clear,60,2013-10-13 18:51:00
3:51 PM,75.9,69.1,79,30.05,10.0,ENE,9.2,18.4,N/A,,Partly Cloudy,60,2013-10-13 19:51:00
4:51 PM,75.0,69.1,82,30.05,10.0,NE,12.7,19.6,N/A,,Clear,50,2013-10-13 20:51:00
5:42 PM,73.4,69.8,88,30.05,10.0,ENE,8.1,17.3,N/A,,Partly Cloudy,60,2013-10-13 21:42:00
5:51 PM,73.0,69.1,87,30.06,10.0,NE,9.2,-,N/A,,Partly Cloudy,50,2013-10-13 21:51:00
6:51 PM,72.0,69.1,91,30.06,10.0,NE,8.1,-,N/A,,Mostly Cloudy,40,2013-10-13 22:51:00
7:35 PM,71.6,69.8,94,30.07,9.0,NE,8.1,-,N/A,,Partly Cloudy,50,2013-10-13 23:35:00
7:51 PM,71.1,69.1,93,30.07,8.0,NE,9.2,16.1,N/A,,Partly Cloudy,40,2013-10-13 23:51:00
8:51 PM,71.1,69.1,93,30.08,9.0,ENE,10.4,21.9,N/A,,Mostly Cloudy,60,2013-10-14 00:51:00
9:51 PM,71.1,69.1,93,30.10,9.0,ENE,9.2,20.7,0.00,,Overcast,60,2013-10-14 01:51:00
10:16 PM,71.6,69.8,94,30.10,9.0,ENE,10.4,18.4,N/A,,Overcast,60,2013-10-14 02:16:00
10:51 PM,71.1,69.1,93,30.10,8.0,ENE,10.4,20.7,N/A,,Overcast,60,2013-10-14 02:51:00
11:19 PM,69.8,68.0,94,30.09,8.0,NE,6.9,-,N/A,,Scattered Clouds,50,2013-10-14 03:19:00
11:51 PM,70.0,66.9,90,30.09,10.0,NE,9.2,16.1,N/A,,Partly Cloudy,50,2013-10-14 03:51:00